VE6CWS-7 Weather Reports


time (UTC)temp
F
wind
direction
speed
knots
gust
knots
rain 1hr
in
rain 24hr
in
rain mn
in
humidity
%
barometer
mb
20260507141552 51 264 6.1 12.2 0.00 0.00 0.00 62 1009.2
20260507140146 50 269 7.0 10.4 0.00 0.00 0.00 63 1009.2
20260507134538 49 265 7.8 10.4 0.00 0.00 0.00 65 1009.2
20260507133046 48 252 7.0 12.2 0.00 0.00 0.00 67 1009.1
20260507131634 46 253 6.1 9.6 0.00 0.00 0.00 70 1009.1
20260507130132 46 261 1.7 7.0 0.00 0.00 0.00 71 1009.3
20260507124543 46 258 2.6 7.0 0.00 0.00 0.00 74 1009.0
20260507123042 43 260 0.0 2.6 0.00 0.00 0.00 75 1009.1
20260507121539 44 261 4.3 6.1 0.00 0.00 0.00 72 1009.0
20260507120136 45 266 1.7 6.1 0.00 0.00 0.00 70 1009.2
20260507114626 45 288 0.0 0.0 0.00 0.00 0.00 68 1009.1
20260507113045 46 288 0.0 0.0 0.00 0.00 0.00 66 1009.1
20260507111544 46 269 0.0 3.5 0.00 0.00 0.00 67 1009.1
20260507110143 44 263 0.0 3.5 0.00 0.00 0.00 68 1009.1
20260507104550 45 263 0.0 2.6 0.00 0.00 0.00 64 1008.9
20260507103049 46 254 0.0 0.0 0.00 0.00 0.00 64 1008.8
20260507101548 44 254 0.0 7.8 0.00 0.00 0.00 68 1008.8
20260507100145 45 246 2.6 7.0 0.00 0.00 0.00 66 1008.8
20260507094538 46 242 6.1 8.7 0.00 0.00 0.00 61 1008.9
20260507093035 46 229 0.0 5.2 0.00 0.00 0.00 61 1008.6
20260507091541 47 221 2.6 6.1 0.00 0.00 0.00 61 1008.4
20260507090129 47 205 0.0 6.1 0.00 0.00 0.00 61 1008.6
20260507084553 48 230 1.7 6.1 0.00 0.00 0.00 57 1008.9
20260507083041 49 231 0.9 4.3 0.00 0.00 0.00 57 1009.0
20260507081543 49 232 3.5 7.8 0.00 0.00 0.00 53 1009.1
20260507080137 49 316 0.0 0.0 0.00 0.00 0.00 56 1009.4
20260507074548 50 316 0.0 0.0 0.00 0.00 0.00 54 1009.4
20260507073051 50 316 0.0 0.0 0.00 0.00 0.00 53 1009.6
20260507071543 50 316 0.0 0.0 0.00 0.00 0.00 52 1009.8
20260507070141 51 316 0.0 7.0 0.00 0.00 0.00 48 1009.7
20260507064558 51 293 0.0 7.0 0.00 0.00 0.00 47 1009.4
20260507063057 51 127 0.0 2.6 0.00 0.00 0.00 45 1009.2
20260507061551 51 165 0.0 2.6 0.00 0.00 0.00 47 1008.9
20260507060147 51 132 0.0 3.5 0.00 0.00 0.00 45 1008.5
20260507054537 52 132 2.6 7.0 0.00 0.00 0.00 42 1008.4
20260507053033 52 128 0.9 14.8 0.00 0.00 0.00 41 1008.5
20260507051533 51 123 0.9 9.6 0.00 0.00 0.00 47 1008.1
20260507050131 51 113 1.7 6.1 0.00 0.00 0.00 47 1008.0
20260507044536 51 111 0.0 6.1 0.00 0.00 0.00 46 1008.2
20260507043036 52 111 0.0 0.0 0.00 0.00 0.00 46 1008.3
20260507041535 52 111 0.0 5.2 0.00 0.00 0.00 44 1008.3
20260507040134 54 113 0.0 8.7 0.00 0.00 0.00 40 1008.1
20260507034538 54 111 6.1 12.2 0.00 0.00 0.00 38 1008.1
20260507033037 55 103 5.2 14.8 0.00 0.00 0.00 39 1008.1
20260507031536 56 117 7.8 12.2 0.00 0.00 0.00 35 1008.1
20260507030135 57 93 5.2 8.7 0.00 0.00 0.00 36 1008.0
20260507024539 58 72 6.1 10.4 0.00 0.00 0.00 36 1008.0
20260507023045 59 61 4.3 9.6 0.00 0.00 0.00 37 1008.0
20260507021544 59 73 0.9 7.0 0.00 0.00 0.00 38 1007.9
20260507020138 60 72 0.9 7.0 0.00 0.00 0.00 38 1007.5
20260507014547 60 76 2.6 7.8 0.00 0.00 0.00 37 1007.3
20260507013052 61 94 1.7 7.8 0.00 0.00 0.00 35 1006.9
20260507011544 61 96 0.9 10.4 0.00 0.00 0.00 34 1006.8
20260507010144 62 123 5.2 12.2 0.00 0.00 0.00 33 1006.5
20260507004601 63 94 7.8 12.2 0.00 0.00 0.00 31 1006.7
20260507003052 64 83 7.8 11.3 0.00 0.00 0.00 31 1006.7
20260507001551 64 86 5.2 9.6 0.00 0.00 0.00 31 1007.0
20260507000147 64 108 2.6 10.4 0.00 0.00 0.00 30 1007.1
20260506234548 65 96 7.8 13.0 0.00 0.00 0.00 29 1007.0
20260506233056 66 115 2.6 11.3 0.00 0.00 0.00 30 1007.1
20260506231540 66 97 6.1 12.2 0.00 0.00 0.00 29 1007.1
20260506230139 65 76 5.2 10.4 0.00 0.00 0.00 28 1007.3
20260506224658 66 112 3.5 8.7 0.00 0.00 0.00 27 1007.7
20260506223055 66 77 1.7 7.0 0.00 0.00 0.00 26 1008.0
20260506221552 68 138 1.7 7.8 0.00 0.00 0.00 26 1008.2
20260506220050 67 119 0.0 6.1 0.00 0.00 0.00 27 1008.5
20260506214550 65 117 0.9 8.7 0.00 0.00 0.00 26 1008.7
20260506213101 67 127 0.9 4.3 0.00 0.00 0.00 26 1008.8
20260506211546 66 211 0.0 5.2 0.00 0.00 0.00 25 1009.0
20260506210040 65 110 0.0 10.4 0.00 0.00 0.00 27 1009.3
20260506204536 63 95 1.7 7.0 0.00 0.00 0.00 30 1009.4
20260506203034 64 224 2.6 8.7 0.00 0.00 0.00 28 1009.7
20260506201533 64 123 2.6 12.2 0.00 0.00 0.00 28 1009.9
20260506200030 63 116 0.9 9.6 0.00 0.00 0.00 29 1010.2
20260506194526 62 117 4.3 10.4 0.00 0.00 0.00 29 1010.6
20260506193024 62 96 0.0 8.7 0.00 0.00 0.00 29 1010.7
20260506191521 62 105 2.6 12.2 0.00 0.00 0.00 29 1010.8
20260506190019 61 127 3.5 12.2 0.00 0.00 0.00 30 1011.0
20260506184527 60 103 4.3 13.0 0.00 0.00 0.00 31 1011.2
20260506183018 59 115 7.0 12.2 0.00 0.00 0.00 32 1011.7
20260506181513 59 118 1.7 8.7 0.00 0.00 0.00 31 1012.0
20260506180007 58 117 0.9 12.2 0.00 0.00 0.00 31 1012.3
20260506174502 57 128 5.2 11.3 0.00 0.00 0.00 32 1012.6
20260506173113 57 121 7.8 13.0 0.00 0.00 0.00 34 1012.9
20260506171556 56 89 3.5 10.4 0.00 0.00 0.00 35 1013.3
20260506170056 55 109 3.5 12.2 0.00 0.00 0.00 37 1013.6
20260506164549 52 123 6.1 12.2 0.00 0.00 0.00 38 1014.0
20260506163047 51 130 5.2 11.3 0.00 0.00 0.00 41 1014.2
20260506161546 50 131 4.3 11.3 0.00 0.00 0.00 42 1014.6
20260506160044 49 126 6.1 9.6 0.00 0.00 0.00 43 1014.8
20260506154535 47 125 3.5 11.3 0.00 0.00 0.00 46 1014.8
20260506153036 46 131 2.6 9.6 0.00 0.00 0.00 49 1015.0
20260506151529 44 127 4.3 8.7 0.00 0.00 0.00 52 1015.2
20260506150027 43 119 2.6 9.6 0.00 0.00 0.00 54 1015.4
20260506144522 41 128 3.5 8.7 0.00 0.00 0.00 58 1015.7
20260506143016 38 122 3.5 7.8 0.00 0.00 0.00 65 1015.9